Tracking 19846 objects as of 19-Sep-2019
HD Live streaming from Space Station
objects crossing your sky now

ATLAS AGENA B DEB

Track ATLAS AGENA B DEB now!
10-day predictions


NORAD ID: 3121
Int'l Code: 1963-030F
Perigee: 3,673.2 km
Apogee: 3,743.0 km
Inclination: 88.4 °
Period: 167.8 minutes
Semi major axis: 10079 km
RCS: 0.1321 m2 (medium)
Launch date: July 19, 1963
Source: United States (US)
Launch site: AIR FORCE WESTERN TEST RANGE (AFWTR)

Note: This is SATELLITE DEBRIS
aabbcc
Your satellite tracking list
Your tracking list is empty




NASA's NSSDC Master Catalog

Two Line Element Set (TLE):
1  3121U 63030F   19261.41199680 +.00000005 +00000-0 +10585-2 0  9992
2  3121 088.4306 347.0546 0034646 012.1002 348.0674 08.57967301995456
Source of the keplerian elements: AFSPC